Location: Unspecified
(0.0000°N, 0.0000°E)
Time: 05:29:12
(UTC+00:00)

ATLAS 5 CENTAUR DEB - Visible Passes

Search period start: 09 December 2025 00:00
Search period end: 19 December 2025 00:00
Orbit: 9604 x 35045 km, 12.6° (Epoch: 17 August)

Date Brightness Start Highest point End Pass type
(mag) Time Alt. Az. Time Alt. Az. Time Alt. Az.
10 Dec ? 00:22:00 10° W 03:15:02 52° W 12:59:17 10° ESE visible
12 Dec ? 18:22:34 10° WSW 19:25:43 74° SSE 07:00:46 10° E daylight
13 Dec ? 21:58:15 10° WSW 00:47:29 81° WNW 10:41:44 10° ESE visible
15 Dec ? 01:58:29 10° W 04:23:29 31° W 14:21:03 10° ESE visible
16 Dec ? 15:58:41 10° W 16:59:22 70° S 04:18:21 10° E visible
17 Dec ? 19:40:31 10° WSW 21:04:14 82° SSE 08:23:35 10° E visible
